Main page
METAR-TAF:

METAR-TAF

Airports :

Sarakhs, Iran

Sarakhs Airport

latitude: 36-30-04N, longitude: 061-03-54E, elevation: 288 m

Current weather observation

The report was made 18 minutes ago, at 23:00 UTC
Wind 2 kt from the South
Temperature 19°C
Humidity 32%
Pressure 1010 hPa

METAR: OIMC 232300Z AUTO 17002KT //// // ////// 19/02 Q1010

Time: 03:48 (23:18 UTC)


TAF: missing

Weather observations and forecasts of more than 4000 airports (METAR and TAF reports).

The available stations are represented by yellow and red dots on the map.

Hover mouse over dot to see the name of the station.

Then click to see weather observations and forecasts.

To change the map : click on the green buttons with a black cross to zoom in, on the green button with a dash to zoom out, or on the green arrows for adjacent maps.


METAR-TAF: